Preview of NWS' New Version of Forecast
This preview is not operational and should not be used for support decisions.

Regional Weather Roundup (RWR)

Issued by National Weather Service (NWS)

                            
000
ASUS42 KTBW 240516
RWRFL 
FLORIDA REGIONAL WEATHER ROUNDUP
NATIONAL WEATHER SERVICE TAMPA BAY RUSKIN FL
100 AM EDT SUN MAR 24 2019

NOTE: "FAIR" INDICATES FEW OR NO CLOUDS BELOW 12,000 FEET WITH NO
SIGNIFICANT WEATHER AND/OR OBSTRUCTIONS TO VISIBILITY.

FLZ001>010-012>015-112-114-115-240600-
PANHANDLE FLORIDA
  
CITY           SKY/WX    TMP DP  RH WIND       PRES   REMARKS
PENSACOLA      FAIR      53  47  79 CALM      30.23S                  
PENSACOLA NAS  FAIR      49  48  97 CALM      30.22S                  
MILTON NAS     FAIR      45  43  93 CALM      30.23S                  
CRESTVIEW      FAIR      45  39  79 CALM      30.25S                  
DUKE FIELD     FAIR      44  39  82 CALM      30.23F                  
MARY ESTHER    CLEAR     48  43  84 N5        30.22S                  
PANAMA CITY    FAIR      49  46  90 CALM      30.23S                  
APALACHICOLA   FAIR      49  43  80 CALM      30.23S                  

STATION/POSITION SKY/WX   TEMP    WIND        PRES    WAVE   SWELL
                          AIR SEA DIR/SP/G            HT/PER HT/PER
                          (F)     (DEG/KT/KT) (MB)    (FT/S) (FT/S)
30.1N   87.6W                                 1023.8S   1
29.2N   88.2W                     130/  6/  8 1023.5F   1/ 4
PANAMA CITY BEAC           62 66  320/  4/  4 1024.0F
TOWER C                    63     330/  2/  2 1023.8F

$$
FLZ011-016>038-118-127-128-134-139-239-240600-
NORTH FLORIDA
  
CITY           SKY/WX    TMP DP  RH WIND       PRES   REMARKS
MARIANNA       FAIR      56  44  64 CALM      30.24S                  
TALLAHASSEE    FAIR      49  43  80 CALM      30.24S                  
PERRY          FAIR      54  47  79 CALM      30.26S                  
LIVE OAK       CLEAR     50  45  81 CALM      30.26F                  
CROSS CITY     FAIR      52  46  79 CALM      30.25S                  
LAKE CITY      FAIR      52  39  62 CALM      30.27S                  
GAINESVILLE    FAIR      55  44  66 CALM      30.28F                  
WILLISTON        N/A    N/A N/A N/A MISG        N/A                   
PALATKA        MOCLDY    48  48 100 CALM      30.27S                  
MAYPORT NAS    FAIR      55  54  96 S3        30.27S                  
JACKSONVILLE   MOCLDY    50  48  93 W3        30.27S                  
JAX NAS        CLOUDY    60  53  77 NE3       30.28S                  
JAX CECIL      FAIR     N/A N/A N/A CALM      30.27F                  
FERNANDINA BEA FAIR      59  55  85 E6        30.27S                  
ST AUGUSTINE   FAIR      56  50  80 CALM      30.28S                  
PALM COAST     FAIR      52  49  90 CALM      30.26S                  

STATION/POSITION SKY/WX   TEMP    WIND        PRES    WAVE   SWELL
                          AIR SEA DIR/SP/G            HT/PER HT/PER
                          (F)     (DEG/KT/KT) (MB)    (FT/S) (FT/S)
SHELL POINT      NOT AVBL
KEATON BEACH               54      70/  7/  8 1024.2F
CEDAR KEY                  59      40/  6/  8 1024.1F
FERNANDINA                 62 63   90/  3/  6 1025.7F
30.7N   81.3W                 63                N/A     3/ 6
MAYPORT                    60 63  160/  3/  3 1025.1F
31.4N   80.9W              64 62  100/ 10/ 12 1025.1S   3/12   2/12
ST AUGUSTINE               63 64   50/  6/  7 1025.0F

$$
FLZ040-043>046-052-053-057-058-063-144-240600-
INTERIOR CENTRAL FLORIDA
  
CITY           SKY/WX    TMP DP  RH WIND       PRES   REMARKS
OCALA          FAIR      55  45  68 CALM      30.26S                  
LEESBURG       FAIR      59  49  69 CALM      30.26S                  
SANFORD        FAIR      57  53  86 NE3       30.25S                  
ORLANDO EXEC   FAIR      60  54  80 NE5       30.25S                  
ORLANDO INTL   MOCLDY    60  54  80 NE3       30.25S                  
KISSIMMEE      FAIR      61  56  83 NE5       30.26S                  
WINTER HAVEN   FAIR      62  54  74 E6        30.26R                  
LAKELAND       FAIR      61  52  72 E5        30.25R                  
BARTOW         FAIR      61  54  77 E7        30.23F                  
SEBRING        FAIR      59  54  84 CALM      30.25S                  
OKEECHOBEE     FAIR      55  54  94 CALM      30.24R                  

$$
FLZ041-047-054-059-064-141-147-240600-
EAST CENTRAL FLORIDA
  
CITY           SKY/WX    TMP DP  RH WIND       PRES   REMARKS
DAYTONA BEACH  FAIR      55  52  89 CALM      30.26S                  
DELAND         FAIR      54  48  82 CALM      30.25S                  
MELBOURNE      FAIR      66  59  78 NE8       30.23F                  
VERO BEACH     FAIR      58  54  86 CALM      30.23S                  
FT PIERCE      MOCLDY    56  53  90 CALM      30.23                   
STUART         MOCLDY    64  57  77 CALM      30.24R                  

STATION/POSITION SKY/WX   TEMP    WIND        PRES    WAVE   SWELL
                          AIR SEA DIR/SP/G            HT/PER HT/PER
                          (F)     (DEG/KT/KT) (MB)    (FT/S) (FT/S)
28.5N   80.2W              72      70/  8/ 12 1024.2F   2/12   2/12
28.9N   78.5W              70 74   30/  8/ 12 1025.0F   3/11   3/11
TRIDENT PIER               61 68   20/  5/  6 1025.0F
28.4N   80.5W                 67                N/A     2/11   2/11
27.5N   80.2W                 69                N/A     2/13   2/13

$$
FLZ050-056-061-142-242-148-248-149-249-151-251-155-255-
160-260-240600-
WEST CENTRAL FLORIDA
  
CITY           SKY/WX    TMP DP  RH WIND       PRES   REMARKS
CRYSTAL RIVER  FAIR      52  46  82 CALM      30.25S                  
INVERNESS      FAIR      52  50  93 CALM      30.26S                  
BROOKSVILLE    FAIR      54  49  83 CALM      30.25S                  
CLEARWATER AIR FAIR      61  52  72 CALM      30.23F                  
ST PETE CLEARW FAIR      62  53  72 N6        30.22F                  
TAMPA INTL     FAIR      64  49  57 NE3       30.23F                  
TAMPA EXEC     FAIR      57  50  77 CALM      30.25S                  
PLANT CITY     FAIR      61  54  77 CALM      30.26S                  
PETER O KNIGHT MOCLDY    64  55  72 E6        30.23F                  
ST PETERSBURG  FAIR      65  53  65 N6        30.21F                  
SARASOTA       FAIR      60  52  74 NE6       30.21S                  
VENICE         FAIR      61  55  82 N3        30.22F                  

STATION/POSITION SKY/WX   TEMP    WIND        PRES    WAVE   SWELL
                          AIR SEA DIR/SP/G            HT/PER HT/PER
                          (F)     (DEG/KT/KT) (MB)    (FT/S) (FT/S)
27.3N   84.2W                 72                N/A     2/ 4
CLEARWATER BEACH           65 69  360/  5/  6 1023.7F
MIDDLE TAMPA BAY           66      30/  9/ 10 1023.7F
VENICE                     64 71   20/  6/  7 1023.2F

$$
FLZ066-069-070-075>078-162-262-165-265-240600-
SOUTHWEST FLORIDA AND KEYS
  
CITY           SKY/WX    TMP DP  RH WIND       PRES   REMARKS
PUNTA GORDA    FAIR      56  53  90 NE5       30.24R                  
FT MYERS       MOCLDY    62  55  77 NE6       30.21S                  
SOUTHWEST INTL FAIR      62  55  77 NE6       30.22S                  
NAPLES         CLOUDY    64  59  83 NE3       30.21S                  
MARCO ISLAND   FAIR      63  58  83 NE5       30.22F                  
IMMOKALEE      MOCLDY    59  55  88 E5        30.20F                  
MARATHON       FAIR      73  60  63 NE5       30.18F                  
KEY WEST NAS   FAIR      71  60  68 NE7       30.18F                  
KEY WEST INTL  FAIR      71  61  70 NE8       30.18F                  

STATION/POSITION SKY/WX   TEMP    WIND        PRES    WAVE   SWELL
                          AIR SEA DIR/SP/G            HT/PER HT/PER
                          (F)     (DEG/KT/KT) (MB)    (FT/S) (FT/S)
NAPLES                     66 72   80/  2/  3 1022.9F
26.0N   85.6W              69 79   90/  8/ 12 1022.1F   1/ 3
DRY TORTUGAS               73     100/ 15/ 18 1021.7F
SAND KEY                   74                 1021.7F
SOMBRERO KEY               74                 1021.3F
MOLASSES REEF              73 78   70/ 10/ 12 1022.4

$$
FLZ067-068-071>074-168-172>174-240600-
SOUTHEAST FLORIDA 
  
CITY           SKY/WX    TMP DP  RH WIND       PRES   REMARKS
W PALM BEACH   MOCLDY    71  56  58 SE8       30.22S                  
FT LAUDER-EXEC FAIR      69  55  60 E5        30.20F                  
FT LAUDERDALE  FAIR      71  57  61 E12       30.20F                  
POMPANO BEACH  FAIR      72  56  57 E7        30.20F                  
PEMBROKE PINES FAIR      68  55  63 E3        30.22F                  
OPA LOCKA      FAIR      68  55  63 E5        30.21F                  
MIAMI          FAIR      69  54  58 SE7       30.21S                  
WEST KENDALL   FAIR      62  53  72 CALM      30.20F                  
HOMESTEAD      FAIR      68  57  68 E6        30.19F                  

STATION/POSITION SKY/WX   TEMP    WIND        PRES    WAVE   SWELL
                          AIR SEA DIR/SP/G            HT/PER HT/PER
                          (F)     (DEG/KT/KT) (MB)    (FT/S) (FT/S)
PORT EVERGLADES            73      90/  8/ 11 1023.1
VIRGINIA KEY               73 76   70/ 11/ 14 1022.1F
LAKE WORTH                 73 75  100/ 10/ 13 1024.1F
FOWEY ROCKS                72 77   90/ 13/ 14 1023.3F
SETTLEMENT POINT           72      80/ 10/ 11 1023.6F

$$